Regional Weather Roundup
Issued by NWS

Home | Current Version | Previous Version | Text Only | Print | Product List | Glossary On
Versions: 1 2 3 4 5 6 7 8 9 10 11 12 13 14 15 16 17 18 19 20 21 22 23 24 25 26 27 28 29 30 31 32 33 34 35 36 37 38 39 40 41 42 43 44 45 46 47 48 49 50
000
ASUS43 KMKX 300800
RWRWI

WISCONSIN REGIONAL WEATHER ROUNDUP
NATIONAL WEATHER SERVICE MILWAUKEE/SULLIVAN WI
300 AM CDT WED JUL 30 2014

NOTE: "FAIR" INDICATES FEW OR NO CLOUDS BELOW 12,000 FEET WITH NO
SIGNIFICANT WEATHER AND/OR OBSTRUCTIONS TO VISIBILITY.

WIZ001-002-006>008-014>016-023>028-300900-
NORTHWEST WISCONSIN

CITY           SKY/WX    TMP DP  RH WIND       PRES   REMARKS
SUPERIOR ARPT  FOG       50  50 100 CALM      30.06R VSB 1/4
ASHLAND        MOCLDY    52  51  97 CALM      30.06S
HAYWARD        FOG       50  50 100 CALM      30.06F VSB 1/4
SIREN          CLEAR     56  55  99 CALM      30.06S FOG
RICE LAKE      CLEAR     56  55  95 CALM      30.07S FOG
LADYSMITH      CLEAR     55  54  95 N3        30.07S FOG
EAU CLAIRE     NOT AVBL
MENOMONIE      PTSUNNY   58  57  94 W3        30.05S
NEW RICHMOND   CLEAR     57  56  96 CALM      30.06S
OSCEOLA        CLEAR     57  57 100 CALM      30.09S
$$

WIZ003>005-009-010-017-018-300900-
NORTH CENTRAL WISCONSIN

CITY           SKY/WX    TMP DP  RH WIND       PRES   REMARKS
WOODRUFF       CLEAR     52  49  92 N5        30.05S FOG
RHINELANDER    CLEAR     51  50  96 CALM      30.05S
EAGLE RIVER    FOG       49  49 100 CALM      30.04S VSB 1
LAND O LAKES   CLOUDY    53  53 100 N3        30.05S FOG
PHILLIPS       CLOUDY    54  54 100 CALM      30.05S
TOMAHAWK       FOG       47  46  97 CALM      30.05S VSB 1/4
MEDFORD        PTCLDY    52  52  99 NW3       30.04S FOG
MERRILL        FOG       50  50 100 CALM      30.04S VSB 1/2
$$

WIZ029-030-035-036-043>047-300900-
CENTRAL WISCONSIN

CITY           SKY/WX    TMP DP  RH WIND       PRES   REMARKS
WAUSAU         CLEAR     55  54  96 NW6       30.02R
MOSINEE        CLEAR     52  52 100 NW6       30.04S
MARSHFIELD     CLEAR     55  54  96 NW6       30.03S
STEVENS POINT  CLEAR     54  52  94 NW3       30.02F
WAUPACA        PTCLDY    60  56  88 NW5       30.00F
WAUTOMA        NOT AVBL
WISC RAPIDS    CLEAR     56  55  97 NW6       30.04S
CAMP DOUGLAS   FOG       54  54 100 NW2       30.03S VSB 1/2
$$

WIZ011>013-019>022-031-037>040-048>050-300900-
NORTHEAST WISCONSIN

CITY           SKY/WX    TMP DP  RH WIND       PRES   REMARKS
ANTIGO         CLEAR     50  50  97 NE3       30.03S
STURGEON BAY   CLEAR     57  54  88 NE5       30.00S
GREEN BAY      CLOUDY    58  57  97 N5        29.99S
MANITOWOC      NOT AVBL
APPLETON       MOCLDY    55  55 100 NW7       29.99F
CLINTONVILLE   CLEAR     57  55  94 CALM      30.00S
OSHKOSH        CLEAR     58  56  93 NW7       29.99S
$$

WIZ032>034-041-042-053>061-300900-
SOUTHWEST WISCONSIN

CITY           SKY/WX    TMP DP  RH WIND       PRES   REMARKS
LA CROSSE      PTCLDY    61  58  90 CALM      30.03S
SPARTA         FOG       53  52  97 CALM      30.05S VSB 3/4
VIROQUA        FAIR      57  57 100 CALM      30.05S
BOSCOBEL       CLEAR     59  57  93 CALM      30.04R
PRAIRIE DU CHI CLEAR     61  56  83 CALM      30.04S
PLATTEVILLE    CLOUDY    61  59  93 SW5       30.05S
$$

WIZ056-057-062-063-064-067-068-300900-
SOUTH CENTRAL WISCONSIN

CITY           SKY/WX    TMP DP  RH WIND       PRES   REMARKS
BARABOO/DELLS  PTCLDY    56  54  92 W3        30.02S
LONE ROCK      NOT AVBL
WATERTOWN      PTCLDY    57  56  99 W3        30.01S
MADISON        CLOUDY    60  56  86 CALM      30.02S
MIDDLETON      CLOUDY    60  59  96 W5        30.02F
MONROE         PTCLDY    61  55  82 W6        30.03S
JANESVILLE     CLEAR     59  55  88 CALM      30.01S
$$

WIZ051-052-058>065-066-070>072-300900-
SOUTHEAST WISCONSIN

CITY           SKY/WX    TMP DP  RH WIND       PRES   REMARKS
MILWAUKEE      PTCLDY    60  55  83 W6        29.99F
WAUKESHA       CLEAR     54  52  94 W6        30.01S
MILWAUKEE/TIMM CLEAR     55  54  94 W3        30.00S
RACINE         MOCLDY    59  55  87 W9        30.00F
BURLINGTON     CLEAR     53  52  98 SW5       30.01S
KENOSHA        CLEAR     55  53  93 W3        30.00S
FOND DU LAC    CLEAR     55  53  93 CALM      29.99F
SHEBOYGAN      CLEAR     57  55  93 NW3       29.98S
WEST BEND      CLEAR     55  52  88 W7        29.99F
JUNEAU         CLEAR     55  54  97 SW3       30.01F
$$

LSZ147-162-300900-
LAKE SUPERIOR

STATION/POSITION TIME  TEMP    WIND        PRES    WAVE
                       AIR SEA DIR/SP/G            HT/PER
                 (UTC) (F)     (DEG/KT/KT) (MB)    (FT/S)
W MID LAKE BUOY  0650   44 43  210/  4/  4 1017.7S   0
PORT WING        0700   55     140/  2/  3 1017.9
SAXON HARBOR     0700          190/  1/  3 1017.6S
$$

LMZ867-665-643>646-300900-
LAKE MICHIGAN

STATION/POSITION TIME  TEMP    WIND        PRES    WAVE
                       AIR SEA DIR/SP/G            HT/PER
                 (UTC) (F)     (DEG/KT/KT) (MB)    (FT/S)
N MID LAKE BUOY  0650   56 54  340/  6/  8 1014.8S   0
NORTHPORT PIER   0700   61     360/  5/  5 1015.6S
SISTER BAY       0710   57        CALM       N/A
ALGOMA LAKESHORE 0721          350/  5/  6   N/A
KEWAUNEE LAKESHO 0700   58      20/  2/  3 1016.1S
SHEBOYGAN LAKESH 0700   62     280/ 10/ 12 1015.2F
PORT WASHINGTON  0740   60     280/  8/ 10 1015.6F
ATWATER BUOY     0700   62     250/ 14     1016.2F
MILWAUKEE LAKESH 0700   61     290/  9/ 12   N/A
S MID LAKE BUOY  0650   61 61  310/  2/  2 1015.7F   1
KENOSHA   LAKESH 0700   61     270/  9/ 12 1015.6S
$$

TC  - TEMPERATURE IN CELSIUS
VSB - VISIBILITY IN STATUTE MILES
WCI - WIND CHILL INDEX
HX  - HEAT INDEX




USA.gov is the U.S. government's official web portal to all federal, state and local government web resources and services.